[[{"header":{"parameterUnit":"m.s-1","parameterCategory":2,"la1":30.2991,"la2":30.254,"lo1":-89.0895,"lo2":-89.0444,"dy":0.0017,"dx":0.0017,"nx":28,"ny":28,"refTime":"2025-06-20T21:00:00:Z","depth":"0","parameterNumber":2,"parameterNumberName":"U-component_of_CURRENTS"},"data":[0,0,0,0,0,0,0,0,0,0,0,0,0,0,0,0,0,0,0,0,0,0,0,0,0,0,0,0,0,0,0,0,0,0,0,0,0,0,0,0,0,0,0,0,0,0,0,0,0,0,0,0,0,0,0,0,0,0,0.1972,0.1973,0,0.2052,0.2053,0.2054,0.2071,0.2071,0.207,0.207,0.211,0.2111,0.2113,0,0,0,0,0,0,0,0,0,0,0,0,0,0.184,0.1842,0.1972,0.1973,0.1974,0.2052,0.2053,0.2054,0.2071,0.2071,0.207,0.2069,0.2109,0.2111,0.2113,0,0,0,0,0,0,0,0,0,0,0,0,0,0.1906,0.1843,0.1971,0.1992,0.1995,0.2052,0.2053,0.2054,0.2071,0.207,0.207,0.2069,0.2109,0.2111,0.2113,0.2143,0,0,0.212,0.2121,0,0,0,0,0,0,0,0,0.1902,0.191,0.1988,0.1991,0.1994,0.2052,0.2022,0.2082,0.2071,0.2041,0.207,0.2069,0.2088,0.2092,0.2108,0.2144,0.2146,0.212,0.2122,0.2123,0.2124,0,0,0,0,0,0,0,0.1897,0.1907,0.2002,0.199,0.1993,0.2001,0.2009,0.2033,0.2066,0.2044,0.2046,0.2056,0.2089,0.2106,0.2109,0.2147,0.212,0.2122,0.2124,0.2125,0.2248,0.2249,0,0,0,0,0,0,0.189,0.1903,0.2,0.2005,0.1947,0.2004,0.2013,0.2033,0.2067,0.2072,0.2057,0.2057,0.2102,0.2106,0.211,0.2185,0.2123,0.2125,0.2126,0.2246,0.2248,0.225,0,0,0,0,0,0,0.1888,0.1899,0.1997,0.1956,0.1969,0.2007,0.2029,0.2035,0.2054,0.2078,0.2081,0.207,0.2102,0.2107,0.2152,0.2184,0.2126,0.2128,0.2243,0.2246,0.2249,0.2309,0,0,0,0,0,0,0.1884,0.1897,0.1913,0.1956,0.1971,0.2039,0.2031,0.2037,0.2062,0.2063,0.209,0.2093,0.2101,0.2149,0.2154,0.2187,0.213,0.2241,0.2245,0.2248,0.2304,0.2313,0.2321,0,0,0,0,0,0.1879,0.1908,0.1914,0.1926,0.1991,0.204,0.2049,0.2072,0.2064,0.2083,0.2107,0.2092,0.2174,0.2152,0.2158,0.2192,0.2239,0.2244,0.2248,0.2301,0.2311,0.2321,0,0,0,0,0,0,0.1866,0.1914,0.1921,0.1965,0.2001,0.2043,0.2067,0.2075,0.211,0.2109,0.212,0.2126,0.2179,0.2178,0.2154,0.2238,0.2203,0.2209,0.2241,0.2252,0.226,0.2261,0.2132,0,0,0,0,0,0.1868,0.19,0.1944,0.1979,0.1997,0.2029,0.2052,0.2068,0.2102,0.2115,0.2135,0.2162,0.2203,0.2219,0.225,0.2295,0.2319,0.2321,0.2329,0.2336,0.2342,0.2412,0.2427,0.2264,0.2264,0.2264,0,0,0.1873,0.1904,0.1922,0.1978,0.2005,0.2047,0.2041,0.2081,0.2118,0.2115,0.2169,0.2192,0.2222,0.228,0.2302,0.2282,0.24,0.2341,0.2347,0.235,0.2418,0.2434,0.2448,0.2267,0.2266,0.2266,0,0,0.1899,0.1925,0.1959,0.1991,0.2037,0.2063,0.2073,0.2119,0.2142,0.2195,0.221,0.2256,0.2302,0.2342,0.2365,0.2436,0.2443,0.244,0.2482,0.255,0.2564,0.2577,0.2647,0.2665,0.2441,0.2442,0.2442,0,0.1902,0.1952,0.1977,0.2018,0.2048,0.2069,0.2111,0.2147,0.2201,0.2232,0.2217,0.2322,0.2337,0.2427,0.245,0.2455,0.2494,0.2441,0.2561,0.2574,0.2586,0.2654,0.2674,0.2445,0.2445,0.2444,0.2444,0,0.1955,0.1992,0.2016,0.2073,0.2109,0.2149,0.2196,0.2234,0.2254,0.229,0.2374,0.241,0.247,0.2485,0.2488,0.2586,0.2589,0.2566,0.2534,0.2606,0.2674,0.2693,0.245,0.2449,0.2448,0.2447,0,0,0.1969,0.2037,0.2046,0.2073,0.2139,0.2173,0.224,0.231,0.2356,0.2408,0.248,0.2551,0.2565,0.2593,0.2611,0.2664,0.278,0.2649,0.2651,0.2716,0.2944,0.3023,0.3051,0.278,0.2783,0.2786,0.2965,0,0.2002,0.2068,0.2103,0.217,0.2207,0.2249,0.2311,0.2375,0.2423,0.2497,0.2553,0.2623,0.261,0.2642,0.27,0.2761,0.283,0.2734,0.2867,0.2872,0.2931,0.3076,0.3173,0.3348,0.2984,0.2987,0.2989,0,0.2046,0.2082,0.2143,0.2213,0.2235,0.2279,0.237,0.2429,0.2534,0.2573,0.2653,0.2694,0.2801,0.276,0.2921,0.2862,0.2912,0.295,0.2958,0.3022,0.2987,0.3215,0.3396,0.3266,0.3018,0.3016,0.3014,0,0.2037,0.2114,0.2155,0.218,0.2265,0.2303,0.2354,0.2451,0.2505,0.2623,0.2676,0.2797,0.2865,0.2953,0.304,0.2989,0.3211,0.3146,0.3272,0.3277,0.3383,0.3392,0.3453,0.3266,0.3266,0.3265,0.3265,0,0.2063,0.2098,0.215,0.2175,0.2228,0.2296,0.2369,0.2435,0.254,0.2625,0.2711,0.2808,0.2914,0.3046,0.3101,0.3281,0.3273,0.3328,0.335,0.3409,0.3418,0.3323,0.3208,0.3272,0.3271,0.3269,0.3268,0,0.2055,0.209,0.2134,0.2204,0.2223,0.2261,0.2352,0.2408,0.2515,0.2631,0.2674,0.2844,0.304,0.3161,0.3327,0.3379,0.3449,0.3568,0.3637,0.3665,0.3645,0.353,0.3435,0.3343,0.3751,0.3755,0.3758,0,0.2058,0.2077,0.2127,0.2138,0.2167,0.2225,0.2266,0.2375,0.2447,0.2661,0.2725,0.2947,0.3118,0.3424,0.3602,0.3792,0.3576,0.3939,0.3856,0.3709,0.3595,0.331,0.3216,0.4024,0.4029,0.4033,0.4036,0,0.205,0.2059,0.2084,0.2101,0.213,0.2174,0.2253,0.2309,0.2468,0.2594,0.2801,0.2959,0.3325,0.3594,0.3861,0.399,0.3782,0.4024,0.3868,0.3835,0.3534,0.3436,0.3814,0.4071,0.4067,0.4065,0.4063,0.4062,0.2023,0.2026,0.2041,0.2051,0.2079,0.2122,0.2157,0.2282,0.2411,0.2619,0.2799,0.3055,0.3483,0.3911,0.4034,0.4268,0.4001,0.4205,0.4089,0.3817,0.3692,0.415,0.4419,0.4418,0.4416,0.4415,0.4414,0,0.1973,0.1974,0.1988,0.2,0.2001,0.204,0.2139,0.2189,0.2337,0.2605,0.2802,0.3257,0.3633,0.3978,0.4372,0.4318,0.4137,0.4202,0.3828,0.374,0.4214,0.4193,0.443,0.443,0.443,0.443,0.443,0.4431,0.1944,0.1924,0.1926,0.1901,0.1913,0.1923,0.1966,0.2081,0.2269,0.2575,0.2847,0.3082,0.3521,0.4002,0.4203,0.4201,0.381,0.3739,0.3499,0.3863,0.3852,0.384,0.3793,0.3943,0.3942,0.3,0.2992,0.2987]},{"header":{"parameterUnit":"m.s-1","parameterCategory":2,"la1":30.2991,"la2":30.254,"lo1":-89.0895,"lo2":-89.0444,"dy":0.0017,"dx":0.0017,"nx":28,"ny":28,"refTime":"2025-06-20T21:00:00:Z","depth":"0","parameterNumber":3,"parameterNumberName":"V-component_of_CURRENTS"},"data":[0,0,0,0,0,0,0,0,0,0,0,0,0,0,0,0,0,0,0,0,0,0,0,0,0,0,0,0,0,0,0,0,0,0,0,0,0,0,0,0,0,0,0,0,0,0,0,0,0,0,0,0,0,0,0,0,0,0,0.0048,0.0047,0,0.0015,0.0014,0.0014,-0.0048,-0.0049,-0.005,-0.0051,-0.0189,-0.0191,-0.0194,0,0,0,0,0,0,0,0,0,0,0,0,0,0.0019,0.002,0.0048,0.0047,0.0047,0.0015,0.0014,0.0014,-0.0048,-0.0049,-0.005,-0.0051,-0.0188,-0.0191,-0.0194,0,0,0,0,0,0,0,0,0,0,0,0,0,0.0012,0.002,0.0048,0.0014,0.0011,0.0015,0.0014,0.0014,-0.0047,-0.0049,-0.005,-0.0052,-0.0187,-0.0191,-0.0195,-0.0189,0,0,-0.0207,-0.0209,0,0,0,0,0,0,0,0,0.0012,0.0013,0.0019,0.0016,0.0013,-0.0012,-0.0046,-0.0059,-0.0047,-0.0027,-0.0051,-0.0053,-0.0137,-0.0145,-0.0149,-0.0195,-0.0201,-0.0208,-0.021,-0.0212,-0.0213,0,0,0,0,0,0,0,0.0013,0.0014,0.0033,0.0019,0.0015,-0.0012,-0.0015,-0.0049,-0.0076,-0.0029,-0.0033,-0.0033,-0.014,-0.0145,-0.0153,-0.0203,-0.0208,-0.0211,-0.0214,-0.0215,-0.0295,-0.0294,0,0,0,0,0,0,0.0025,0.0015,0.0034,0.0032,0.0011,-0.001,-0.0013,-0.0004,-0.0074,-0.0085,-0.0032,-0.0036,-0.0137,-0.0148,-0.0158,-0.0168,-0.0212,-0.0216,-0.0218,-0.0295,-0.0295,-0.0294,0,0,0,0,0,0,0.0024,0.0027,0.0035,0.0023,0.0022,-0.0008,0.0003,-0.0004,-0.0014,-0.0075,-0.0088,-0.0035,-0.0139,-0.0153,-0.0187,-0.0174,-0.0217,-0.0221,-0.0295,-0.0295,-0.0295,-0.018,0,0,0,0,0,0,0.0024,0.0028,0.0038,0.0025,0.0024,0.0048,0.0004,-0.0003,-0.001,-0.0016,-0.0082,-0.0096,-0.0141,-0.018,-0.0191,-0.018,-0.0224,-0.0296,-0.0295,-0.0295,-0.0184,-0.0176,-0.0169,0,0,0,0,0,0.0023,0.0055,0.0039,0.0041,0.004,0.005,0.0047,0.0018,-0.0009,0.0001,-0.005,-0.0094,-0.0185,-0.0183,-0.0195,-0.0186,-0.0296,-0.0295,-0.0295,-0.0188,-0.0178,-0.0169,0,0,0,0,0,0,0.0052,0.0051,0.0034,0.0063,0.0058,0.004,0.0047,0.0026,-0.0004,-0.0018,-0.0083,-0.01,-0.0126,-0.0172,-0.0168,-0.0209,-0.025,-0.0252,-0.0165,-0.0156,-0.0148,-0.013,-0.0228,0,0,0,0,0,0.0064,0.0083,0.0073,0.0096,0.0095,0.007,0.0069,0.0051,0.0024,0.001,-0.0033,-0.0088,-0.013,-0.0155,-0.0196,-0.0212,-0.026,-0.0219,-0.0211,-0.0203,-0.0199,-0.0258,-0.0254,-0.0292,-0.0292,-0.0292,0,0,0.0083,0.0083,0.0094,0.0102,0.0092,0.0107,0.0065,0.0072,0.0078,-0.0001,-0.0009,-0.0058,-0.0128,-0.0147,-0.0164,-0.0185,-0.0215,-0.0203,-0.0196,-0.0195,-0.0256,-0.0253,-0.0249,-0.0291,-0.0292,-0.0292,0,0,0.0131,0.0128,0.0156,0.0158,0.0152,0.0139,0.0144,0.0129,0.0114,0.0106,0.0044,0.0008,-0.0049,-0.0092,-0.0125,-0.0099,-0.017,-0.0119,-0.0065,-0.0121,-0.0118,-0.0116,-0.0155,-0.0157,-0.0117,-0.0117,-0.0116,0,0.0148,0.0182,0.0167,0.019,0.0196,0.0157,0.0184,0.0172,0.0148,0.0138,0.0115,0.0031,-0.0021,-0.0059,-0.0049,-0.0079,-0.0122,-0.009,-0.0109,-0.0108,-0.0108,-0.0149,-0.0153,-0.0111,-0.0112,-0.0112,-0.0113,0,0.0212,0.0235,0.0253,0.0266,0.0274,0.0293,0.0274,0.0272,0.0247,0.0226,0.0192,0.0127,0.0073,0.0053,0.0011,-0.0016,-0.0048,-0.0088,-0.0126,-0.0097,-0.0142,-0.0148,-0.0103,-0.0105,-0.0107,-0.0108,0,0,0.0252,0.029,0.0293,0.031,0.0313,0.0327,0.0339,0.0335,0.0335,0.0303,0.0297,0.0233,0.0189,0.0149,0.0088,0.0044,0.0019,-0.0013,-0.0018,-0.0038,-0.0096,-0.0117,-0.0127,-0.0028,-0.0029,-0.0029,-0.0121,0,0.0298,0.0358,0.0364,0.0415,0.044,0.0418,0.0435,0.0423,0.0398,0.0385,0.0313,0.0281,0.0226,0.0199,0.015,0.0046,0.0004,0.0048,-0.0134,-0.0138,-0.015,-0.0134,-0.0061,-0.0137,-0.0127,-0.0129,-0.0129,0,0.035,0.0383,0.0443,0.0483,0.0491,0.0515,0.0521,0.0532,0.0498,0.0475,0.0428,0.0369,0.0305,0.0251,0.0103,0.0131,0.0032,-0.0047,-0.0053,-0.0119,-0.0172,-0.0171,-0.015,-0.0267,-0.014,-0.0139,-0.0139,0,0.0374,0.0435,0.0483,0.0497,0.0536,0.0555,0.0569,0.0556,0.0561,0.0526,0.0519,0.0429,0.0381,0.0253,0.0103,0.0095,-0.0063,-0.0101,-0.0211,-0.0214,-0.0211,-0.0212,-0.0315,-0.0207,-0.0207,-0.0206,-0.0206,0,0.0415,0.0454,0.0499,0.0525,0.058,0.0593,0.0632,0.0629,0.0621,0.0632,0.0564,0.0545,0.0376,0.0269,0.0126,-0.0054,-0.0051,-0.0197,-0.0241,-0.0168,-0.0164,-0.0316,-0.043,-0.021,-0.0209,-0.0208,-0.0208,0,0.0433,0.0463,0.0522,0.0574,0.0594,0.063,0.0677,0.0701,0.069,0.07,0.0692,0.0617,0.0487,0.0318,0.0108,-0.0024,-0.0274,-0.0263,-0.0154,-0.0183,-0.0395,-0.0506,-0.0694,-0.0773,-0.0396,-0.0397,-0.0398,0,0.0449,0.0481,0.0552,0.0591,0.0618,0.0673,0.0711,0.0726,0.0753,0.0744,0.0754,0.065,0.0596,0.0304,0.0063,-0.0179,-0.0321,-0.0288,-0.0295,-0.0393,-0.055,-0.0603,-0.066,-0.024,-0.0239,-0.0239,-0.0239,0,0.0479,0.05,0.0547,0.0623,0.0676,0.0743,0.08,0.0831,0.085,0.0868,0.0872,0.0836,0.0583,0.04,0.0079,-0.0105,-0.037,-0.0291,-0.0423,-0.0463,-0.0498,-0.0598,-0.0188,-0.0235,-0.0236,-0.0236,-0.0236,-0.0236,0.0494,0.0532,0.0592,0.0662,0.0728,0.0811,0.0869,0.0933,0.0994,0.1057,0.1002,0.1033,0.0778,0.0362,0.0055,-0.0345,-0.0409,-0.0434,-0.0567,-0.0613,-0.0675,-0.0254,-0.0337,-0.0338,-0.0339,-0.0339,-0.034,0,0.0511,0.0561,0.0631,0.0721,0.0796,0.0828,0.0929,0.0999,0.1093,0.1195,0.1229,0.1235,0.0884,0.0487,-0.0055,-0.0469,-0.0632,-0.0698,-0.074,-0.0794,-0.0425,-0.0399,-0.0461,-0.0461,-0.0461,-0.0461,-0.046,-0.046,0.0527,0.059,0.063,0.0757,0.0828,0.0933,0.0997,0.1109,0.1222,0.1416,0.1549,0.1627,0.1442,0.0381,-0.0375,-0.064,-0.096,-0.1059,-0.1245,-0.0962,-0.0946,-0.093,-0.0927,-0.1099,-0.11,-0.1483,-0.1487,-0.1491]}],[{"header":{"parameterUnit":"m.s-1","parameterCategory":2,"la1":30.2991,"la2":30.254,"lo1":-89.0895,"lo2":-89.0444,"dy":0.0017,"dx":0.0017,"nx":28,"ny":28,"refTime":"2025-06-20T21:00:00:Z","depth":"2","parameterNumber":2,"parameterNumberName":"U-component_of_CURRENTS"},"data":[0,0,0,0,0,0,0,0,0,0,0,0,0,0,0,0,0,0,0,0,0,0,0,0,0,0,0,0,0,0,0,0,0,0,0,0,0,0,0,0,0,0,0,0,0,0,0,0,0,0,0,0,0,0,0,0,0,0,0.1551,0.1551,0,0.1608,0.1609,0.1609,0.163,0.163,0.1629,0.1629,0.1675,0.1676,0.1677,0,0,0,0,0,0,0,0,0,0,0,0,0,0.1458,0.1459,0.1551,0.1551,0.1552,0.1608,0.1609,0.1609,0.163,0.163,0.1629,0.1629,0.1674,0.1676,0.1678,0,0,0,0,0,0,0,0,0,0,0,0,0,0.1504,0.146,0.155,0.157,0.1573,0.1608,0.1609,0.161,0.163,0.163,0.1629,0.1629,0.1674,0.1676,0.1678,0.1692,0,0,0.1684,0.1684,0,0,0,0,0,0,0,0,0.1501,0.1507,0.1566,0.1569,0.1572,0.1613,0.1593,0.1637,0.163,0.1606,0.1629,0.1629,0.1654,0.1658,0.1667,0.1694,0.1696,0.1684,0.1685,0.1686,0.1686,0,0,0,0,0,0,0,0.1498,0.1504,0.1572,0.1567,0.1571,0.1576,0.1582,0.1601,0.1629,0.1608,0.161,0.1619,0.1655,0.1665,0.1668,0.1697,0.1684,0.1685,0.1687,0.1687,0.1805,0.1807,0,0,0,0,0,0,0.1494,0.1502,0.157,0.1574,0.1537,0.1578,0.1585,0.1599,0.1629,0.1634,0.1619,0.162,0.1662,0.1666,0.167,0.1761,0.1686,0.1688,0.1689,0.1803,0.1806,0.1808,0,0,0,0,0,0,0.1492,0.15,0.1568,0.154,0.1549,0.158,0.1595,0.16,0.1628,0.1638,0.1642,0.1645,0.1662,0.1667,0.1714,0.176,0.1688,0.169,0.1801,0.1804,0.1807,0.1897,0,0,0,0,0,0,0.1489,0.1499,0.1516,0.154,0.1551,0.1606,0.1595,0.1601,0.1634,0.1636,0.1661,0.1664,0.1662,0.1711,0.1716,0.1761,0.1692,0.1798,0.1802,0.1806,0.1892,0.1903,0.1912,0,0,0,0,0,0.1486,0.1513,0.1516,0.1525,0.157,0.1607,0.1614,0.1634,0.1635,0.1657,0.1679,0.1664,0.1738,0.1715,0.172,0.1767,0.1797,0.1801,0.1805,0.1887,0.1901,0.1912,0,0,0,0,0,0,0.1488,0.1518,0.1522,0.1559,0.1587,0.1612,0.1638,0.1647,0.1681,0.1689,0.1691,0.1696,0.1757,0.1747,0.1722,0.1811,0.1765,0.177,0.1825,0.1838,0.1848,0.1845,0.1693,0,0,0,0,0,0.1494,0.1521,0.1547,0.158,0.1595,0.1619,0.1639,0.1654,0.1683,0.1698,0.1718,0.1741,0.1776,0.1795,0.1819,0.1866,0.1877,0.1899,0.1909,0.1918,0.1919,0.1978,0.1994,0.1822,0.1822,0.1822,0,0,0.1504,0.1525,0.1541,0.1582,0.1605,0.164,0.1632,0.1674,0.171,0.1698,0.176,0.1781,0.1797,0.1857,0.1882,0.1857,0.1979,0.1924,0.1931,0.1928,0.1984,0.2001,0.2016,0.1825,0.1825,0.1824,0,0,0.1536,0.1558,0.1588,0.1614,0.1655,0.1673,0.1689,0.1728,0.1753,0.1808,0.1817,0.1866,0.1909,0.1937,0.1953,0.2033,0.2034,0.2044,0.2095,0.2153,0.2168,0.2181,0.2242,0.2259,0.2047,0.2048,0.2048,0,0.1548,0.1588,0.1605,0.164,0.167,0.169,0.1732,0.1762,0.1814,0.1845,0.1839,0.1935,0.1947,0.2026,0.2056,0.2058,0.2091,0.2048,0.2167,0.218,0.2192,0.2251,0.2269,0.2053,0.2052,0.2051,0.2051,0,0.1597,0.1633,0.1658,0.1706,0.174,0.1784,0.1821,0.1864,0.1894,0.1924,0.2011,0.2039,0.2093,0.2113,0.2109,0.2206,0.2205,0.2177,0.2136,0.2215,0.2272,0.2289,0.206,0.2058,0.2056,0.2055,0,0,0.1616,0.1678,0.1688,0.1716,0.178,0.181,0.1878,0.1944,0.199,0.2048,0.2119,0.2187,0.2205,0.2225,0.2239,0.2287,0.2405,0.2272,0.2273,0.2333,0.2552,0.2541,0.2558,0.2405,0.2408,0.241,0.2568,0,0.1652,0.1716,0.1745,0.1816,0.1854,0.1895,0.1951,0.2012,0.2065,0.2136,0.2189,0.2258,0.2248,0.2286,0.2339,0.2388,0.2451,0.2365,0.2465,0.2468,0.2448,0.2577,0.2171,0.2276,0.2584,0.2587,0.2589,0,0.1693,0.173,0.1797,0.1865,0.1886,0.193,0.2021,0.2073,0.2169,0.2215,0.2298,0.2335,0.2439,0.24,0.2543,0.2495,0.2535,0.2562,0.2569,0.2533,0.2489,0.2242,0.2295,0.2618,0.2615,0.2613,0.2611,0,0.1694,0.1769,0.1821,0.1847,0.1925,0.1966,0.2011,0.21,0.216,0.227,0.2332,0.244,0.2514,0.2583,0.2662,0.2614,0.281,0.2742,0.2773,0.2773,0.2432,0.2397,0.2841,0.2841,0.284,0.284,0.2839,0,0.1722,0.1766,0.1821,0.185,0.1914,0.1966,0.2046,0.2106,0.2208,0.2289,0.2371,0.2462,0.2564,0.2683,0.272,0.2832,0.2869,0.2818,0.2826,0.2456,0.2423,0.2703,0.2685,0.2846,0.2844,0.2843,0.2842,0,0.1724,0.1761,0.1821,0.1893,0.1917,0.1961,0.206,0.2115,0.2213,0.2325,0.2371,0.2525,0.2686,0.2794,0.2929,0.2918,0.3005,0.3025,0.2601,0.2557,0.2908,0.2893,0.3071,0.3072,0.3073,0.3074,0.3075,0,0.1734,0.1763,0.1837,0.1861,0.1896,0.1963,0.2009,0.2112,0.2176,0.2358,0.2413,0.2611,0.273,0.295,0.2898,0.2978,0.3105,0.2727,0.2555,0.2949,0.2939,0.2922,0.2906,0.2138,0.2131,0.2125,0.2121,0,0.1745,0.177,0.1807,0.1856,0.1902,0.1957,0.203,0.2082,0.2208,0.2309,0.2467,0.2577,0.2708,0.2614,0.272,0.2695,0.2677,0.2619,0.3139,0.2165,0.2088,0.2073,0.2083,0.2069,0.2075,0.2078,0.2081,0.2083,0.1745,0.1764,0.1803,0.1848,0.1891,0.1932,0.196,0.2042,0.2136,0.2215,0.2377,0.2396,0.233,0.2273,0.228,0.2263,0.2423,0.2302,0.2311,0.2327,0.2214,0.2146,0.2116,0.2121,0.2126,0.213,0.2133,0,0.1732,0.1754,0.1789,0.183,0.1847,0.1892,0.1957,0.1952,0.202,0.2047,0.2132,0.1833,0.1763,0.1822,0.1646,0.1684,0.1562,0.1705,0.1477,0.1524,0.1567,0.1409,0.1101,0.1101,0.11,0.1099,0,0,0.1724,0.1741,0.1757,0.1771,0.1796,0.1802,0.1822,0.1816,0.1803,0.1691,0.1597,0.16,0.1638,0.1296,0.1255,0.1197,0.1368,0.1143,0.1928,0.1695,0.1738,0.1829,0.1631,0,0,0,0,0]},{"header":{"parameterUnit":"m.s-1","parameterCategory":2,"la1":30.2991,"la2":30.254,"lo1":-89.0895,"lo2":-89.0444,"dy":0.0017,"dx":0.0017,"nx":28,"ny":28,"refTime":"2025-06-20T21:00:00:Z","depth":"2","parameterNumber":3,"parameterNumberName":"V-component_of_CURRENTS"},"data":[0,0,0,0,0,0,0,0,0,0,0,0,0,0,0,0,0,0,0,0,0,0,0,0,0,0,0,0,0,0,0,0,0,0,0,0,0,0,0,0,0,0,0,0,0,0,0,0,0,0,0,0,0,0,0,0,0,0,0.0125,0.0125,0,0.0083,0.0082,0.0082,0.0051,0.0051,0.0051,0.005,-0.0045,-0.0047,-0.005,0,0,0,0,0,0,0,0,0,0,0,0,0,0.0166,0.0165,0.0125,0.0125,0.0124,0.0083,0.0082,0.0082,0.0051,0.0051,0.005,0.005,-0.0044,-0.0047,-0.005,0,0,0,0,0,0,0,0,0,0,0,0,0,0.0138,0.0165,0.0125,0.0104,0.0102,0.0083,0.0082,0.0081,0.0051,0.0051,0.005,0.005,-0.0043,-0.0047,-0.005,-0.0065,0,0,-0.0061,-0.0063,0,0,0,0,0,0,0,0,0.014,0.0137,0.0108,0.0106,0.0103,0.0072,0.0062,0.003,0.0051,0.007,0.005,0.005,-0.001,-0.0017,-0.0024,-0.007,-0.0074,-0.0061,-0.0063,-0.0065,-0.0066,0,0,0,0,0,0,0,0.0142,0.0138,0.0108,0.0107,0.0104,0.0092,0.0088,0.0056,0.0031,0.0068,0.0066,0.0062,-0.0012,-0.002,-0.0026,-0.0075,-0.0061,-0.0064,-0.0067,-0.0068,-0.015,-0.015,0,0,0,0,0,0,0.0149,0.014,0.0109,0.0107,0.0121,0.0092,0.0087,0.0082,0.0032,0.0025,0.0062,0.0061,-0.0014,-0.0022,-0.003,-0.0036,-0.0065,-0.0068,-0.007,-0.015,-0.015,-0.015,0,0,0,0,0,0,0.015,0.0146,0.0111,0.0123,0.0117,0.0092,0.0086,0.0081,0.0077,0.0029,0.002,0.0063,-0.0015,-0.0025,-0.0055,-0.0041,-0.007,-0.0073,-0.015,-0.015,-0.015,-0.0058,0,0,0,0,0,0,0.0151,0.0147,0.0148,0.0123,0.0117,0.0108,0.0086,0.0081,0.0075,0.0073,0.0026,0.0017,-0.0016,-0.005,-0.0059,-0.0046,-0.0076,-0.015,-0.015,-0.015,-0.0061,-0.0055,-0.005,0,0,0,0,0,0.0153,0.0159,0.0148,0.0145,0.0119,0.0108,0.0104,0.0084,0.0076,0.0078,0.0044,0.0019,-0.0057,-0.0052,-0.0063,-0.0051,-0.015,-0.015,-0.015,-0.0064,-0.0056,-0.005,0,0,0,0,0,0,0.0178,0.0155,0.0144,0.0142,0.0129,0.0103,0.0105,0.0091,0.0068,0.0064,0.0019,0.0007,-0.0015,-0.005,-0.0044,-0.0078,-0.0108,-0.0111,-0.0039,-0.0033,-0.0027,0.0001,-0.0079,0,0,0,0,0,0.0185,0.0183,0.0159,0.016,0.0155,0.0131,0.0125,0.0113,0.0088,0.0078,0.0049,0.001,-0.0025,-0.0041,-0.0078,-0.0093,-0.0135,-0.0096,-0.009,-0.0085,-0.0071,-0.0133,-0.0131,-0.0151,-0.0151,-0.0151,0,0,0.0197,0.0183,0.0183,0.0165,0.0154,0.0159,0.0127,0.0124,0.013,0.007,0.0071,0.0029,-0.0027,-0.0044,-0.0057,-0.007,-0.0101,-0.0085,-0.008,-0.0069,-0.0133,-0.0131,-0.0129,-0.0151,-0.0151,-0.0151,0,0,0.0227,0.0207,0.022,0.0212,0.0198,0.0183,0.0186,0.0166,0.0158,0.0148,0.0104,0.0074,0.0029,-0.0005,-0.003,-0.0019,-0.0071,-0.0033,0.0023,-0.0037,-0.0036,-0.0035,-0.0076,-0.008,-0.0027,-0.0027,-0.0027,0,0.0245,0.0255,0.0223,0.0235,0.0239,0.0199,0.0222,0.0205,0.018,0.0178,0.016,0.0095,0.0049,0.0023,0.0029,-0.0003,-0.0042,0.0007,-0.0028,-0.0028,-0.0029,-0.0072,-0.0077,-0.0023,-0.0023,-0.0024,-0.0024,0,0.0286,0.0295,0.0303,0.0305,0.0303,0.0314,0.029,0.0287,0.0272,0.0256,0.0232,0.017,0.0135,0.0111,0.0076,0.0052,0.0025,-0.0014,-0.0037,-0.0021,-0.0068,-0.0074,-0.0016,-0.0018,-0.0019,-0.002,0,0,0.0327,0.0333,0.0337,0.0356,0.0343,0.0351,0.0357,0.0355,0.0368,0.033,0.0342,0.0276,0.0245,0.0214,0.0159,0.0111,0.0073,0.0059,0.0054,0.0032,-0.0047,-0.0032,-0.0039,0.0026,0.0025,0.0025,-0.0074,0,0.0374,0.0418,0.0404,0.0451,0.0475,0.0445,0.0458,0.0447,0.043,0.0427,0.0359,0.0342,0.0282,0.027,0.0212,0.0109,0.0058,0.0105,-0.0072,-0.0077,-0.0054,-0.0045,-0.0074,-0.0162,-0.0081,-0.0082,-0.0083,0,0.0423,0.0448,0.0504,0.0534,0.0542,0.0561,0.0579,0.0585,0.0556,0.0543,0.0509,0.0454,0.0393,0.0331,0.0174,0.0207,0.0095,0.0006,-0.0001,-0.0021,-0.0074,-0.017,-0.0178,-0.0096,-0.0095,-0.0094,-0.0093,0,0.0477,0.0518,0.057,0.0579,0.0602,0.0625,0.0637,0.0626,0.0642,0.0619,0.0626,0.0537,0.0502,0.0353,0.0193,0.0175,0.0014,-0.0042,-0.0137,-0.0138,-0.0213,-0.0217,-0.0164,-0.0164,-0.0164,-0.0164,-0.0163,0,0.0533,0.0573,0.0603,0.063,0.0695,0.069,0.0744,0.0741,0.0744,0.0766,0.0694,0.0693,0.0503,0.0394,0.0225,0.0046,0.0034,-0.0117,-0.016,-0.018,-0.018,-0.0167,-0.0166,-0.0167,-0.0166,-0.0166,-0.0165,0,0.0582,0.0597,0.066,0.0704,0.0723,0.0771,0.0818,0.085,0.0848,0.0875,0.0874,0.0805,0.0679,0.0489,0.0256,0.0102,-0.0085,-0.0153,-0.0143,-0.0182,-0.0209,-0.0202,-0.0276,-0.0277,-0.0277,-0.0277,-0.0277,0,0.0612,0.065,0.0717,0.0755,0.0779,0.0842,0.0882,0.0902,0.0936,0.0942,0.096,0.0877,0.0834,0.0535,0.0242,-0.0033,-0.0064,-0.0239,-0.028,-0.0185,-0.022,-0.0213,-0.0206,-0.0354,-0.0354,-0.0355,-0.0356,0,0.067,0.069,0.0733,0.0812,0.0869,0.0937,0.0996,0.104,0.1057,0.1099,0.1135,0.1115,0.0845,0.0555,0.0196,0.0012,-0.0192,-0.0258,-0.0187,-0.0297,-0.0259,-0.0293,-0.0284,-0.0361,-0.0361,-0.036,-0.036,-0.036,0.0703,0.0743,0.0793,0.0868,0.0935,0.1017,0.1081,0.1149,0.1232,0.1286,0.1265,0.1186,0.0803,0.0321,0.006,-0.0208,-0.0204,-0.0356,-0.0355,-0.0352,-0.032,-0.0282,-0.0382,-0.0382,-0.0382,-0.0381,-0.0381,0,0.0734,0.0775,0.0845,0.093,0.1006,0.1041,0.1143,0.1212,0.1329,0.133,0.1385,0.0957,0.0648,0.0285,-0.014,-0.0381,-0.0393,-0.0433,-0.0443,-0.0438,-0.0432,-0.0404,-0.0489,-0.0489,-0.049,-0.049,0,0,0.0748,0.0805,0.0841,0.0966,0.1037,0.1147,0.1215,0.1332,0.1351,0.134,0.1225,0.1097,0.0599,0.023,-0.0086,-0.0277,-0.0275,-0.029,-0.0189,-0.0158,-0.0149,-0.0387,-0.0336,0,0,0,0,0]}],[{"header":{"parameterUnit":"m.s-1","parameterCategory":2,"la1":30.2991,"la2":30.254,"lo1":-89.0895,"lo2":-89.0444,"dy":0.0017,"dx":0.0017,"nx":28,"ny":28,"refTime":"2025-06-20T21:00:00:Z","depth":"4","parameterNumber":2,"parameterNumberName":"U-component_of_CURRENTS"},"data":[0,0,0,0,0,0,0,0,0,0,0,0,0,0,0,0,0,0,0,0,0,0,0,0,0,0,0,0,0,0,0,0,0,0,0,0,0,0,0,0,0,0,0,0,0,0,0,0,0,0,0,0,0,0,0,0,0,0,0.0552,0.0554,0,0.0613,0.0614,0.0614,0.0725,0.0728,0.0731,0.0733,0.0816,0.0816,0.0815,0,0,0,0,0,0,0,0,0,0,0,0,0,0.0491,0.0491,0.0552,0.0554,0.0555,0.0613,0.0614,0.0614,0.0725,0.0728,0.0731,0.0734,0.0816,0.0816,0.0815,0,0,0,0,0,0,0,0,0,0,0,0,0,0.0525,0.0491,0.0552,0.0622,0.0629,0.0613,0.0614,0.0614,0.0724,0.0728,0.0732,0.0736,0.0816,0.0816,0.0815,0.0731,0,0,0.0814,0.0814,0,0,0,0,0,0,0,0,0.0523,0.0527,0.061,0.0617,0.0625,0.0671,0.0623,0.0656,0.0723,0.0681,0.0733,0.0738,0.077,0.0774,0.0767,0.0735,0.0739,0.0814,0.0813,0.0813,0.0813,0,0,0,0,0,0,0,0.0521,0.0525,0.057,0.0611,0.0621,0.0637,0.0646,0.0629,0.0698,0.0685,0.0695,0.071,0.0775,0.0767,0.077,0.074,0.0814,0.0813,0.0813,0.0813,0.0793,0.0793,0,0,0,0,0,0,0.0523,0.0522,0.0569,0.0573,0.059,0.0635,0.0645,0.0647,0.0698,0.0711,0.0707,0.0716,0.0766,0.0771,0.0774,0.0822,0.0813,0.0813,0.0812,0.0794,0.0793,0.0793,0,0,0,0,0,0,0.0521,0.0526,0.0566,0.0555,0.0562,0.0633,0.0634,0.0647,0.071,0.0715,0.0729,0.0767,0.077,0.0774,0.082,0.0821,0.0813,0.0812,0.0794,0.0794,0.0793,0.0825,0,0,0,0,0,0,0.0519,0.0524,0.0549,0.0554,0.0563,0.0594,0.0631,0.0645,0.0712,0.0725,0.0769,0.0777,0.0773,0.0821,0.082,0.082,0.0812,0.0794,0.0794,0.0793,0.0824,0.0825,0.0827,0,0,0,0,0,0.0516,0.0541,0.0549,0.0557,0.0587,0.0595,0.0601,0.066,0.0711,0.0733,0.0777,0.078,0.0817,0.0821,0.0819,0.0819,0.0794,0.0794,0.0793,0.0823,0.0825,0.0827,0,0,0,0,0,0,0.0536,0.0554,0.0565,0.0597,0.0609,0.0618,0.0654,0.0687,0.0735,0.0771,0.0784,0.0793,0.0825,0.0816,0.0821,0.081,0.0801,0.08,0.0824,0.0826,0.0827,0.085,0.0811,0,0,0,0,0,0.0544,0.0569,0.0574,0.0604,0.0611,0.0637,0.0661,0.0696,0.0729,0.0758,0.079,0.0811,0.0802,0.082,0.0813,0.0813,0.0819,0.0808,0.0809,0.0811,0.0827,0.0825,0.0829,0.0791,0.0791,0.0791,0,0,0.0547,0.0577,0.0583,0.0611,0.0625,0.0648,0.0663,0.071,0.0748,0.0753,0.0832,0.0822,0.0804,0.0807,0.0819,0.0816,0.0827,0.081,0.0812,0.0827,0.0825,0.0829,0.0832,0.0791,0.0791,0.0791,0,0,0.057,0.06,0.062,0.0634,0.0677,0.0696,0.0724,0.0755,0.0792,0.083,0.0842,0.0851,0.0855,0.0839,0.0826,0.0829,0.0832,0.082,0.0851,0.0849,0.0852,0.0856,0.0882,0.0888,0.0823,0.0823,0.0823,0,0.0587,0.0607,0.0628,0.0655,0.068,0.0728,0.075,0.0781,0.0835,0.0853,0.0872,0.087,0.0862,0.0848,0.0849,0.0834,0.0847,0.0848,0.0853,0.0856,0.0859,0.0885,0.089,0.0825,0.0825,0.0824,0.0824,0,0.0596,0.0634,0.0651,0.0702,0.0733,0.0763,0.0799,0.085,0.0901,0.0918,0.0935,0.0911,0.0912,0.089,0.0872,0.0873,0.0882,0.0854,0.0854,0.0865,0.0891,0.0897,0.0827,0.0826,0.0826,0.0825,0,0,0.0584,0.0642,0.0658,0.0685,0.076,0.0785,0.0851,0.0894,0.0946,0.097,0.1002,0.0966,0.0964,0.0949,0.0918,0.0911,0.0937,0.09,0.0899,0.0938,0.0964,0.0889,0.0888,0.0914,0.0915,0.0916,0.0981,0,0.0588,0.0644,0.0677,0.0745,0.0769,0.0826,0.0889,0.0947,0.0981,0.103,0.1001,0.102,0.0983,0.0981,0.0968,0.094,0.095,0.0924,0.0939,0.094,0.088,0.089,0.0918,0.0985,0.0986,0.0987,0.0987,0,0.0583,0.0631,0.0684,0.077,0.0787,0.086,0.0958,0.1004,0.1068,0.1083,0.1089,0.1084,0.1079,0.1043,0.1028,0.1018,0.1006,0.0984,0.0986,0.091,0.0873,0.0966,0.0997,0.0996,0.0995,0.0995,0.0994,0,0.0562,0.0639,0.0693,0.0716,0.082,0.0882,0.0959,0.1041,0.1074,0.1129,0.1151,0.1147,0.1159,0.1129,0.1074,0.107,0.1055,0.1041,0.097,0.0966,0.1004,0.0999,0.1047,0.1047,0.1047,0.1047,0.1047,0,0.0547,0.0594,0.0705,0.0733,0.0829,0.0905,0.0998,0.1059,0.1135,0.1158,0.1189,0.1169,0.1183,0.116,0.1109,0.1046,0.1085,0.0988,0.0972,0.1016,0.1012,0.1009,0.1003,0.1049,0.1049,0.1048,0.1048,0,0.0514,0.0573,0.0633,0.0761,0.0819,0.0893,0.1032,0.1069,0.1164,0.119,0.1212,0.1228,0.1185,0.1173,0.1131,0.1095,0.1032,0.1001,0.1071,0.1057,0.0954,0.095,0.0968,0.0966,0.0964,0.0963,0.0961,0,0.0495,0.0525,0.0653,0.0709,0.0784,0.0904,0.0971,0.1074,0.1081,0.1168,0.1143,0.1176,0.1157,0.105,0.1038,0.0992,0.0961,0.0989,0.096,0.096,0.0944,0.0942,0.0941,0.0958,0.0958,0.0957,0.0957,0,0.0454,0.051,0.0564,0.0674,0.0761,0.083,0.0926,0.0919,0.0998,0.1101,0.1054,0.1055,0.102,0.0969,0.0963,0.0902,0.1001,0.0969,0.0973,0.0946,0.0948,0.0934,0.0934,0.095,0.0951,0.0952,0.0952,0,0.0429,0.0448,0.0524,0.0619,0.0716,0.0741,0.0788,0.0805,0.0833,0.0928,0.0889,0.0909,0.0967,0.0918,0.0861,0.0849,0.0847,0.0858,0.0868,0.0876,0.0811,0.0798,0.0748,0,0,0,0,0,0.0406,0.041,0.0471,0.0536,0.0629,0.0691,0.0748,0.0771,0.0828,0.0773,0.0847,0.0792,0.0788,0.0772,0.0736,0.0812,0.0839,0.0774,0.0853,0.0914,0.0921,0.0851,0,0,0,0,0,0,0.0373,0.0418,0.0426,0.0463,0.0511,0.0569,0.0602,0.0635,0.0591,0.0677,0.0634,0.0781,0.0725,0.0793,0.073,0.0739,0.0784,0.0813,0.0813,0.0909,0.0916,0.0922,0.0853,0,0,0,0,0]},{"header":{"parameterUnit":"m.s-1","parameterCategory":2,"la1":30.2991,"la2":30.254,"lo1":-89.0895,"lo2":-89.0444,"dy":0.0017,"dx":0.0017,"nx":28,"ny":28,"refTime":"2025-06-20T21:00:00:Z","depth":"4","parameterNumber":3,"parameterNumberName":"V-component_of_CURRENTS"},"data":[0,0,0,0,0,0,0,0,0,0,0,0,0,0,0,0,0,0,0,0,0,0,0,0,0,0,0,0,0,0,0,0,0,0,0,0,0,0,0,0,0,0,0,0,0,0,0,0,0,0,0,0,0,0,0,0,0,0,-0.0021,-0.0021,0,-0.0079,-0.008,-0.008,-0.0175,-0.0176,-0.0178,-0.0179,-0.0322,-0.0324,-0.0326,0,0,0,0,0,0,0,0,0,0,0,0,0,0.0014,0.0014,-0.0021,-0.0021,-0.0022,-0.0079,-0.008,-0.0081,-0.0175,-0.0176,-0.0178,-0.018,-0.0321,-0.0324,-0.0326,0,0,0,0,0,0,0,0,0,0,0,0,0,-0.002,0.0013,-0.002,-0.0074,-0.0079,-0.0078,-0.008,-0.0081,-0.0174,-0.0176,-0.0179,-0.0181,-0.032,-0.0323,-0.0327,-0.0302,0,0,-0.0338,-0.0339,0,0,0,0,0,0,0,0,-0.0018,-0.0022,-0.0065,-0.007,-0.0076,-0.012,-0.012,-0.0158,-0.0174,-0.014,-0.0179,-0.0182,-0.0259,-0.0268,-0.0275,-0.0309,-0.0315,-0.0338,-0.034,-0.0342,-0.0342,0,0,0,0,0,0,0,-0.0016,-0.002,-0.0046,-0.0066,-0.0072,-0.0093,-0.0101,-0.0127,-0.0189,-0.0143,-0.015,-0.0152,-0.0263,-0.0271,-0.0279,-0.0317,-0.0338,-0.0341,-0.0343,-0.0344,-0.0465,-0.0466,0,0,0,0,0,0,-0.0002,-0.0017,-0.0044,-0.0047,-0.005,-0.0092,-0.01,-0.0105,-0.0187,-0.0201,-0.015,-0.0156,-0.0264,-0.0275,-0.0285,-0.0364,-0.0341,-0.0345,-0.0347,-0.0464,-0.0465,-0.0466,0,0,0,0,0,0,-0.0001,-0.0004,-0.0041,-0.0032,-0.0038,-0.009,-0.0094,-0.0105,-0.0152,-0.0191,-0.0207,-0.019,-0.0266,-0.028,-0.0353,-0.0367,-0.0346,-0.035,-0.0462,-0.0464,-0.0466,-0.0457,0,0,0,0,0,0,0.0,-0.0003,-0.0012,-0.0031,-0.0038,-0.0062,-0.0092,-0.0105,-0.0146,-0.0156,-0.0229,-0.0243,-0.0269,-0.0348,-0.0357,-0.0371,-0.0352,-0.0461,-0.0463,-0.0465,-0.0456,-0.0458,-0.046,0,0,0,0,0,0.0002,-0.0001,-0.0012,-0.0016,-0.0045,-0.0062,-0.0069,-0.0114,-0.0146,-0.0166,-0.023,-0.0243,-0.0367,-0.0352,-0.0362,-0.0378,-0.046,-0.0463,-0.0465,-0.0455,-0.0458,-0.046,0,0,0,0,0,0,0.0001,-0.0011,-0.0024,-0.0033,-0.0054,-0.0079,-0.0098,-0.0127,-0.0188,-0.0212,-0.0259,-0.0277,-0.0346,-0.0364,-0.0346,-0.042,-0.0414,-0.0418,-0.0403,-0.0405,-0.0407,-0.0396,-0.0355,0,0,0,0,0,0.0005,-0.0004,-0.0019,-0.0031,-0.0038,-0.0072,-0.0089,-0.012,-0.0167,-0.0198,-0.0258,-0.0314,-0.0353,-0.0384,-0.0427,-0.0463,-0.0466,-0.0481,-0.0483,-0.0484,-0.0483,-0.0497,-0.05,-0.0474,-0.0474,-0.0474,0,0,0.0003,-0.0008,-0.0013,-0.0031,-0.0051,-0.0069,-0.0091,-0.0123,-0.0156,-0.0201,-0.0288,-0.033,-0.0368,-0.0419,-0.0449,-0.0441,-0.0494,-0.0487,-0.0488,-0.0486,-0.05,-0.0502,-0.0504,-0.0476,-0.0476,-0.0475,0,0,-0.0,-0.0015,-0.0021,-0.0034,-0.0062,-0.0084,-0.0099,-0.0147,-0.0188,-0.0254,-0.0297,-0.0355,-0.0425,-0.0454,-0.0471,-0.0508,-0.0508,-0.0522,-0.0518,-0.0532,-0.0534,-0.0535,-0.0537,-0.0539,-0.0517,-0.0517,-0.0517,0,-0.0006,-0.0012,-0.0028,-0.0037,-0.005,-0.0094,-0.0108,-0.0147,-0.0225,-0.0257,-0.0289,-0.0398,-0.0438,-0.0477,-0.0493,-0.0512,-0.0514,-0.0502,-0.0532,-0.0534,-0.0536,-0.0537,-0.0539,-0.0517,-0.0517,-0.0517,-0.0517,0,-0.0007,-0.0018,-0.0024,-0.0051,-0.0071,-0.009,-0.0131,-0.0182,-0.0241,-0.0283,-0.036,-0.0416,-0.0471,-0.0492,-0.0505,-0.0534,-0.0529,-0.0535,-0.0519,-0.0537,-0.0538,-0.054,-0.0516,-0.0517,-0.0517,-0.0517,0,0,-0.0005,-0.0021,-0.0025,-0.0033,-0.0078,-0.0092,-0.0146,-0.0195,-0.0232,-0.0319,-0.0364,-0.0439,-0.047,-0.0491,-0.0516,-0.0533,-0.0548,-0.0535,-0.0536,-0.0524,-0.0568,-0.0526,-0.0524,-0.0554,-0.0554,-0.0554,-0.0561,0,-0.0007,-0.0013,-0.0028,-0.0053,-0.0061,-0.0103,-0.0147,-0.0203,-0.0259,-0.032,-0.0379,-0.0433,-0.0465,-0.0484,-0.0511,-0.0542,-0.0554,-0.0545,-0.0563,-0.0564,-0.0514,-0.0525,-0.0556,-0.0563,-0.0563,-0.0563,-0.0564,0,-0.0006,-0.001,-0.002,-0.0046,-0.0054,-0.0088,-0.0148,-0.0186,-0.0266,-0.0304,-0.0361,-0.0406,-0.0456,-0.0474,-0.0533,-0.0524,-0.0543,-0.0566,-0.0566,-0.0531,-0.0526,-0.0545,-0.0567,-0.0567,-0.0567,-0.0567,-0.0566,0,0.0007,-0.0007,-0.0014,-0.0021,-0.0061,-0.009,-0.0129,-0.0199,-0.0214,-0.0289,-0.0299,-0.0382,-0.0404,-0.0459,-0.0499,-0.0518,-0.0546,-0.0578,-0.0559,-0.0556,-0.0594,-0.0592,-0.0608,-0.0608,-0.0608,-0.0608,-0.0608,0,0.0013,0.0005,-0.0013,-0.0017,-0.0038,-0.008,-0.0111,-0.0156,-0.02,-0.0197,-0.0285,-0.0286,-0.0398,-0.0424,-0.0482,-0.0512,-0.0529,-0.0556,-0.0555,-0.0591,-0.0589,-0.0595,-0.0593,-0.0608,-0.0608,-0.0608,-0.0608,0,0.0019,0.0013,0.0011,-0.0021,-0.0031,-0.0053,-0.0079,-0.0089,-0.0138,-0.0128,-0.0139,-0.0211,-0.0258,-0.0342,-0.0418,-0.0465,-0.0514,-0.0511,-0.052,-0.052,-0.0525,-0.0524,-0.0525,-0.0523,-0.0522,-0.0521,-0.052,0,0.0022,0.0023,0.002,0.0026,0.0007,-0.0016,-0.0023,-0.0062,-0.0041,-0.0063,-0.0038,-0.0095,-0.0142,-0.0226,-0.033,-0.0437,-0.0449,-0.0474,-0.0536,-0.0518,-0.0518,-0.0518,-0.0517,-0.0518,-0.0518,-0.0518,-0.0517,0,0.003,0.0029,0.0033,0.0055,0.0055,0.0071,0.0068,0.0089,0.0077,0.0057,0.0055,-0.0022,-0.0071,-0.0194,-0.0258,-0.0338,-0.0472,-0.0463,-0.0467,-0.0527,-0.0511,-0.0511,-0.0512,-0.0513,-0.0514,-0.0514,-0.0514,0,0.0038,0.0046,0.0064,0.0079,0.0106,0.0138,0.0128,0.0152,0.0159,0.0147,0.0157,0.0055,-0.0005,-0.0137,-0.0195,-0.0274,-0.0325,-0.0368,-0.0379,-0.0385,-0.035,-0.031,-0.0246,0,0,0,0,0,0.005,0.0065,0.0087,0.0112,0.015,0.016,0.0194,0.0192,0.0203,0.0221,0.0185,0.0139,0.0002,-0.0072,-0.0145,-0.0194,-0.0342,-0.0282,-0.0397,-0.049,-0.0495,-0.0476,0,0,0,0,0,0,0.0057,0.0082,0.0093,0.015,0.0171,0.0213,0.0229,0.0231,0.024,0.0232,0.0159,0.0123,-0.0012,0.0048,-0.0146,-0.0173,-0.0255,-0.0348,-0.0349,-0.0487,-0.0492,-0.0496,-0.0478,0,0,0,0,0]}]]